Main page
METAR-TAF:

METAR-TAF

Airports :

Paros National Airport

Paros, Greece

latitude: 37-01-15N, longitude: 025-06-46E, elevation: 38 m

Current weather observation

The report was made 2 hours and 58 minutes ago, at 00:20 UTC
Wind 7 kt from the North
Temperature 18°C
Humidity 88%
Pressure 1019 hPa
light rain

METAR: LGPA 160020Z AUTO 36007KT //// -RA ////// 18/16 Q1019 RE//

Time: 06:18 (03:18 UTC)


TAF: missing

Weather observations and forecasts of more than 4000 airports (METAR and TAF reports).

The available stations are represented by yellow and red dots on the map.

Hover mouse over dot to see the name of the station.

Then click to see weather observations and forecasts.

To change the map : click on the green buttons with a black cross to zoom in, on the green button with a dash to zoom out, or on the green arrows for adjacent maps.


METAR-TAF: